You are listening to:
YSBK ATIS - Bankstown, New South Wales, Australia

YSSY 240500Z 13011KT 9999 FEW015 SCT030 BKN064 25/18 Q1011

If stream doesn't start automatically press the play button
If stream stops then reload player then press play